Flag for U.S.A. Weather past 2 weeks in Huntington Beach, California, U.S.A.

Now
68 °F

Scattered clouds.


Feels Like: 68 °F
Forecast: 58 / 80 °F
Wind: 9 mph from West

Location: John Wayne Airport-Orange County Airport

Current Time: Apr 26, 2015 at 7:17:53 PM

Latest Report: Apr 26, 2015 at 5:53 PM


Visibility: 10 mi

Pressure: 29.89 "Hg

Humidity: 45%

Dew point: 46 °F

Location of Huntington BeachLocation

Historic Weather in Huntington Beach — Graph

°F

Huntington Beach temperature yesterday

Maximum temperature yesterday: 64 °F (at 1:53 PM)
Minimum temperature yesterday: 57 °F (at 11:53 PM)
Average temperature yesterday: 61 °F

Past Weeks' High & Low Weather Summary

 TemperatureHumidityPressure
High79 °F (Apr 17, 12:53 PM)94% (Apr 24, 9:58 AM)30.11 "Hg (Apr 24, 9:58 AM)
Low54 °F (Apr 26, 2:53 AM)6% (Apr 16, 10:53 AM)29.85 "Hg (Apr 20, 5:53 PM)
Average63 °F60%29.95 "Hg
* Reported Apr 11 5:53 PM — Apr 26 5:53 PM, Huntington Beach, Weather by CustomWeather, © 2015

Note: Actual official high and low records may vary slightly from our data, if they occured in-between our weather recording intervals... More about our weather records

Advertising

Huntington Beach weather history for previous 24 hours

 ConditionsComfort  
Time TempWeatherWind HumidityBarometerVisibility
5:53 PM
Sun, Apr 26
68 °FScattered clouds.9 mph45%29.89 "Hg10 mi
4:53 PM69 °FScattered clouds.9 mph41%29.92 "Hg10 mi
3:53 PM69 °FScattered clouds.12 mph42%29.93 "Hg10 mi
2:53 PM70 °FPartly sunny.8 mph44%29.96 "Hg10 mi
1:53 PM69 °FPartly sunny.9 mph47%29.96 "Hg10 mi
12:53 PM69 °FBroken clouds.10 mph53%29.98 "Hg10 mi
11:53 AM69 °FBroken clouds.8 mph53%29.99 "Hg10 mi
10:53 AM66 °FScattered clouds.8 mph59%30.01 "Hg10 mi
9:53 AM65 °FBroken clouds.5 mph59%30.00 "Hg10 mi
8:53 AM62 °FBroken clouds.No wind65%29.99 "Hg10 mi
7:53 AM58 °FScattered clouds.5 mph72%29.99 "Hg10 mi
6:53 AM55 °FPassing clouds.No wind80%29.97 "Hg10 mi
5:53 AM54 °FClear.5 mph83%29.95 "Hg10 mi
4:53 AM54 °FClear.6 mph83%29.94 "Hg10 mi
3:53 AM54 °FClear.6 mph83%29.93 "Hg10 mi
2:53 AM54 °FClear.No wind83%29.91 "Hg10 mi
1:53 AM55 °FClear.No wind80%29.92 "Hg10 mi
12:53 AM56 °FClear.3 mph77%29.92 "Hg10 mi
11:53 PM
Sat, Apr 25
57 °FClear.No wind74%29.92 "Hg10 mi
10:53 PM59 °FPassing clouds.No wind67%29.91 "Hg10 mi
9:53 PM59 °FPassing clouds.5 mph69%29.92 "Hg10 mi
8:53 PM60 °FPassing clouds.6 mph72%29.90 "Hg10 mi
7:53 PM60 °FBroken clouds.5 mph75%29.90 "Hg10 mi
Weather by CustomWeather, © 2015

See weather overviewHow to use our weather pages